Location: C�mpuri de-Sus
(45.9500°N, 22.5500°E)
Time: 01:10:11
(UTC+00:00)

Cosmos 839 Rocket - Pass Details

Date: 02 June 2022
Orbit: 968 x 2085 km, 65.9° (Epoch: 06 July)

Event Time Altitude Azimuth Distance (km) Brightness Sun altitude
Rises 19:01:25 0° 323° (NW) 3,668 9.2 -7.3°
Reaches altitude 10° 19:04:57 10° 343° (NNW) 2,730 7.4 -7.8°
Maximum altitude 19:08:59 17° 24° (NNE) 2,298 6.2 -8.3°
Drops below altitude 10° 19:13:15 10° 65° (ENE) 2,915 6.3 -8.8°
Sets 19:17:11 0° 85° (E) 4,027 6.8 -9.3°
